Terminal Aerodrome Forecast
Issued by NWS

Home | Current Version | Previous Version | Text Only | Print | Product List | Glossary On
Versions: 1 2 3 4 5 6 7 8 9 10 11 12 13 14 15 16 17 18 19 20 21 22 23 24 25 26 27 28 29 30 31 32 33 34 35 36 37 38 39 40
000
FTUS43 KDDC 101700
TAFGCK
TAF
KGCK 101738Z 1018/1118 17018G27KT P6SM SKC
     FM102000 20023G31KT P6SM SKC
     FM110200 19015KT P6SM SKC
     FM111600 19023G32KT P6SM SKC=

USA.gov is the U.S. government's official web portal to all federal, state and local government web resources and services.